EW9273 Weather Reports


Display with metric or nautical units.
time (UTC)temp
F
wind
direction
speed
MPH
gust
MPH
rain 1hr
in
rain 24hr
in
rain mn
in
humidity
%
barometer
mb
20260509004026 76 39 2.0 6.0 0.00 0.00 0.00 77 1006.2
20260509003526 76 101 2.0 8.0 0.00 0.00 0.00 77 1006.3
20260509003026 76 100 3.0 8.0 0.00 0.00 0.00 77 1006.3
20260509002525 76 96 2.0 5.0 0.00 0.00 0.00 77 1006.3
20260509002027 76 78 1.0 3.0 0.00 0.00 0.00 76 1006.3
20260509001525 76 79 1.0 4.0 0.00 0.00 0.00 76 1006.4
20260509001026 76 57 2.0 6.0 0.00 0.00 0.00 76 1006.5
20260509000525 76 76 1.0 6.0 0.00 0.00 0.00 76 1006.4
20260509000025 77 74 1.0 6.0 0.00 0.00 0.00 76 1006.3
20260508235525 77 94 2.0 5.0 0.00 0.00 0.00 76 1006.3
20260508235024 76 82 1.0 5.0 0.00 0.00 0.00 76 1006.3
20260508234524 77 26 1.0 6.0 0.00 0.00 0.00 75 1006.2
20260508234023 77 57 2.0 6.0 0.00 0.00 0.00 75 1006.3
20260508233525 77 42 3.0 6.0 0.00 0.00 0.00 74 1006.3
20260508233026 77 80 2.0 6.0 0.00 0.00 0.00 75 1006.3
20260508232522 77 117 2.0 5.0 0.00 0.00 0.00 75 1006.3
20260508232022 77 88 1.0 6.0 0.00 0.00 0.00 75 1006.3
20260508231522 77 81 2.0 6.0 0.00 0.00 0.00 75 1006.3
20260508231022 77 30 3.0 6.0 0.00 0.00 0.00 75 1006.3
20260508230521 77 78 3.0 9.0 0.00 0.00 0.00 74 1006.3
20260508230021 77 71 3.0 9.0 0.00 0.00 0.00 74 1006.3
20260508225520 77 40 3.0 7.0 0.00 0.00 0.00 75 1006.3
20260508225020 77 37 4.0 7.0 0.00 0.00 0.00 75 1006.3
20260508224521 76 75 2.0 6.0 0.00 0.00 0.00 75 1006.5
20260508224020 76 65 2.0 6.0 0.00 0.00 0.00 75 1006.6
20260508223519 76 76 2.0 8.0 0.00 0.00 0.00 75 1006.6
20260508223017 76 63 3.0 8.0 0.00 0.00 0.00 74 1006.6
20260508222517 76 51 3.0 6.0 0.00 0.00 0.00 74 1006.6
20260508222015 76 65 3.0 6.0 0.00 0.00 0.00 75 1006.7
20260508221515 76 59 3.0 6.0 0.00 0.00 0.00 75 1006.8
20260508221014 76 128 1.0 4.0 0.00 0.00 0.00 75 1006.9
20260508220513 76 106 1.0 8.0 0.00 0.00 0.00 75 1006.9
20260508220012 76 75 3.0 6.0 0.00 0.00 0.00 74 1007.0
20260508215517 76 90 2.0 8.0 0.00 0.00 0.00 74 1007.0
20260508215012 76 85 1.0 8.0 0.00 0.00 0.00 75 1007.0
20260508214523 76 84 2.0 9.0 0.00 0.00 0.00 74 1007.1
20260508214011 76 22 3.0 9.0 0.00 0.00 0.00 73 1007.1
20260508213510 76 22 2.0 5.0 0.00 0.00 0.00 73 1007.1
20260508213009 76 34 2.0 5.0 0.00 0.00 0.00 73 1007.1
20260508212509 76 59 2.0 5.0 0.00 0.00 0.00 73 1007.3
20260508212011 76 76 1.0 4.0 0.00 0.00 0.00 73 1007.2
20260508211512 76 70 2.0 5.0 0.00 0.00 0.00 73 1007.3
20260508211006 76 53 3.0 5.0 0.00 0.00 0.00 72 1007.5
20260508210505 76 102 1.0 7.0 0.00 0.00 0.00 72 1007.7
20260508210006 75 69 2.0 7.0 0.00 0.00 0.00 73 1007.7
20260508205503 75 313 2.0 5.0 0.00 0.00 0.00 73 1007.8
20260508205005 75 67 2.0 5.0 0.00 0.00 0.00 73 1007.9
20260508204502 75 44 3.0 5.0 0.00 0.00 0.00 73 1007.9
20260508204001 75 69 2.0 6.0 0.00 0.00 0.00 73 1008.0
20260508203502 75 54 1.0 5.0 0.00 0.00 0.00 73 1007.9
20260508203001 75 57 0.0 7.0 0.00 0.00 0.00 74 1007.9
20260508202603 74 82 1.0 9.0 0.00 0.00 0.00 74 1007.9
20260508202100 74 29 3.0 9.0 0.00 0.00 0.00 73 1008.0
20260508201559 74 78 3.0 8.0 0.00 0.00 0.00 73 1008.0
20260508201059 74 74 3.0 9.0 0.00 0.00 0.00 73 1008.1
20260508200558 74 66 3.0 9.0 0.00 0.00 0.00 73 1008.1
20260508200058 74 113 2.0 9.0 0.00 0.00 0.00 73 1008.2
20260508195558 74 58 3.0 9.0 0.00 0.00 0.00 73 1008.3
20260508195055 74 62 3.0 10.0 0.00 0.00 0.00 73 1008.3
20260508194605 73 59 4.0 10.0 0.00 0.00 0.00 74 1008.3
20260508194053 73 126 1.0 7.0 0.00 0.00 0.00 74 1008.3
20260508193551 73 93 3.0 7.0 0.00 0.00 0.00 74 1008.3
20260508193113 72 90 4.0 8.0 0.00 0.00 0.00 74 1008.4
20260508192551 72 89 4.0 8.0 0.00 0.00 0.00 75 1008.5
20260508192052 72 73 2.0 8.0 0.00 0.00 0.00 74 1008.6
20260508191557 72 77 2.0 6.0 0.00 0.00 0.00 74 1008.7
20260508191047 71 41 3.0 6.0 0.00 0.00 0.00 74 1008.8
20260508190549 71 32 3.0 8.0 0.00 0.00 0.00 74 1008.9
20260508190107 72 65 3.0 8.0 0.00 0.00 0.00 74 1008.8
20260508185545 71 32 3.0 8.0 0.00 0.02 0.00 75 1008.7
20260508185045 71 57 4.0 8.0 0.00 0.02 0.00 74 1008.8
20260508184544 71 63 3.0 8.0 0.00 0.02 0.00 74 1008.9
20260508184045 71 112 4.0 8.0 0.00 0.02 0.00 75 1009.0
20260508183541 70 84 2.0 8.0 0.00 0.02 0.00 75 1009.1
20260508183044 71 114 3.0 5.0 0.00 0.02 0.00 74 1009.3
20260508182540 71 71 2.0 7.0 0.00 0.02 0.00 74 1009.4
20260508182038 70 84 2.0 7.0 0.00 0.02 0.00 74 1009.4
20260508181545 70 54 2.0 5.0 0.00 0.02 0.00 74 1009.5
20260508181037 70 50 2.0 5.0 0.00 0.02 0.00 74 1009.7
20260508180539 70 61 2.0 5.0 0.00 0.02 0.00 74 1009.7
20260508180036 70 92 1.0 6.0 0.00 0.02 0.00 74 1009.9
20260508175535 70 84 1.0 6.0 0.00 0.02 0.00 74 1009.9
20260508175035 70 44 1.0 3.0 0.00 0.02 0.00 74 1010.0
20260508174538 70 44 2.0 4.0 0.00 0.02 0.00 74 1009.9
20260508174033 70 71 2.0 4.0 0.00 0.02 0.00 74 1010.0
20260508173533 70 55 1.0 5.0 0.00 0.02 0.00 74 1010.1
20260508173032 70 40 2.0 5.0 0.00 0.02 0.00 74 1010.0
20260508172532 69 44 1.0 6.0 0.00 0.02 0.00 73 1010.1
20260508172032 70 95 1.0 5.0 0.00 0.02 0.00 73 1010.2
20260508171540 70 71 1.0 4.0 0.00 0.02 0.00 73 1010.1
20260508171030 70 65 2.0 4.0 0.00 0.02 0.00 73 1010.1
20260508170531 70 328 1.0 4.0 0.00 0.02 0.00 73 1010.1
20260508170030 70 30 2.0 4.0 0.00 0.02 0.00 73 1010.3
20260508165529 69 355 0.0 4.0 0.00 0.02 0.00 74 1010.4
20260508165027 69 55 2.0 4.0 0.00 0.02 0.00 74 1010.4
20260508164527 68 32 1.0 4.0 0.00 0.02 0.00 74 1010.2
20260508164025 68 57 2.0 5.0 0.00 0.02 0.00 74 1010.3
20260508163524 68 78 2.0 6.0 0.00 0.02 0.00 74 1010.5
20260508163024 68 76 3.0 6.0 0.00 0.02 0.00 74 1010.5
20260508162625 68 78 3.0 6.0 0.00 0.02 0.00 74 1010.5
20260508162024 68 54 2.0 6.0 0.00 0.02 0.00 74 1010.5
20260508161538 68 19 2.0 6.0 0.00 0.02 0.00 75 1010.6
20260508161022 67 80 2.0 7.0 0.00 0.02 0.00 76 1010.6
20260508160520 67 347 2.0 7.0 0.00 0.02 0.00 75 1010.7
20260508160021 66 67 1.0 7.0 0.00 0.02 0.00 75 1010.8
20260508155519 67 79 3.0 6.0 0.00 0.02 0.00 76 1010.9
20260508155018 66 343 1.0 5.0 0.00 0.02 0.00 77 1010.9
20260508154520 66 355 1.0 6.0 0.00 0.02 0.00 77 1010.9
20260508154018 65 355 2.0 5.0 0.00 0.02 0.00 77 1011.1
20260508153515 65 15 2.0 5.0 0.00 0.02 0.00 77 1011.3
20260508153025 65 355 2.0 5.0 0.00 0.02 0.00 77 1011.4
20260508152514 65 54 2.0 5.0 0.00 0.02 0.00 77 1011.4
20260508152013 65 33 2.0 6.0 0.00 0.02 0.00 77 1011.3
20260508151513 65 360 2.0 6.0 0.00 0.02 0.00 77 1011.3
20260508151016 65 55 2.0 10.0 0.00 0.02 0.00 77 1011.4
20260508150511 64 36 3.0 10.0 0.00 0.02 0.00 78 1011.4
20260508150011 64 79 3.0 7.0 0.00 0.02 0.00 78 1011.4
20260508145510 64 50 4.0 9.0 0.00 0.02 0.00 78 1011.4
20260508145010 64 28 2.0 5.0 0.00 0.02 0.00 78 1011.6
20260508144509 64 32 2.0 8.0 0.00 0.02 0.00 78 1011.7
20260508144008 64 334 2.0 8.0 0.00 0.02 0.00 78 1011.7
20260508143508 64 46 2.0 6.0 0.00 0.02 0.00 78 1011.7
20260508143007 64 343 2.0 5.0 0.00 0.02 0.00 78 1011.7
20260508142507 64 33 2.0 6.0 0.00 0.02 0.00 78 1011.5
20260508142006 64 39 2.0 6.0 0.00 0.02 0.00 78 1011.5
20260508141507 64 14 2.0 6.0 0.00 0.02 0.00 78 1011.5
20260508141005 64 327 2.0 6.0 0.00 0.02 0.00 78 1011.4
20260508140505 64 20 2.0 6.0 0.00 0.02 0.00 78 1011.5
20260508140006 64 22 2.0 6.0 0.00 0.02 0.00 78 1011.6
20260508135504 64 36 1.0 8.0 0.00 0.02 0.00 78 1011.5
20260508135004 64 67 4.0 8.0 0.00 0.02 0.00 78 1011.3
20260508134503 63 14 2.0 8.0 0.00 0.02 0.00 78 1011.2
20260508134002 63 78 4.0 8.0 0.00 0.02 0.00 77 1011.1
20260508133502 63 79 3.0 8.0 0.00 0.02 0.00 77 1011.0
20260508133001 63 36 3.0 6.0 0.00 0.02 0.00 77 1011.2
20260508132559 63 42 2.0 5.0 0.00 0.02 0.00 77 1011.2
20260508132059 63 79 1.0 9.0 0.00 0.02 0.00 77 1011.4
20260508131600 63 9 2.0 9.0 0.00 0.02 0.00 77 1011.5
20260508131059 63 59 2.0 4.0 0.00 0.02 0.00 77 1011.5
20260508130557 63 38 1.0 4.0 0.00 0.02 0.00 77 1011.4
20260508130057 63 339 1.0 4.0 0.00 0.02 0.00 77 1011.4
20260508125559 63 32 1.0 5.0 0.00 0.02 0.00 77 1011.4
20260508125056 63 29 3.0 5.0 0.00 0.02 0.00 77 1011.4
20260508124554 63 70 2.0 5.0 0.00 0.02 0.00 77 1011.4
20260508124054 63 23 0.0 4.0 0.00 0.02 0.00 77 1011.5
20260508123553 63 82 2.0 3.0 0.00 0.02 0.00 77 1011.5
20260508123053 63 24 1.0 3.0 0.00 0.02 0.00 77 1011.5
20260508122552 63 338 1.0 3.0 0.00 0.02 0.00 77 1011.6
20260508122053 63 333 1.0 3.0 0.00 0.02 0.00 77 1011.8
20260508121552 62 330 1.0 4.0 0.00 0.02 0.00 77 1011.8
20260508121051 62 330 1.0 4.0 0.00 0.02 0.00 77 1011.7
20260508120551 62 355 1.0 4.0 0.00 0.02 0.00 77 1011.6
20260508120100 62 338 1.0 5.0 0.00 0.02 0.00 76 1011.6
20260508115555 62 35 1.0 5.0 0.00 0.02 0.00 76 1011.7
20260508115054 62 53 2.0 6.0 0.00 0.02 0.00 76 1011.8
20260508114559 62 335 2.0 8.0 0.00 0.02 0.00 76 1011.9
20260508114049 62 333 3.0 8.0 0.00 0.02 0.00 76 1011.7
20260508113549 62 333 2.0 6.0 0.00 0.02 0.00 76 1011.5
20260508113050 62 36 2.0 9.0 0.00 0.02 0.00 76 1011.4
20260508112549 62 5 3.0 10.0 0.00 0.02 0.00 76 1011.3
20260508112048 62 26 5.0 10.0 0.00 0.02 0.00 75 1010.9
20260508111547 62 61 5.0 9.0 0.00 0.02 0.00 75 1011.1
20260508111047 63 36 5.0 9.0 0.00 0.02 0.00 74 1011.5
20260508110545 63 19 3.0 8.0 0.00 0.02 0.00 74 1011.7
20260508110048 63 14 2.0 9.0 0.00 0.02 0.00 74 1011.9
20260508105545 63 338 2.0 9.0 0.00 0.02 0.00 74 1012.2
20260508105045 63 328 2.0 6.0 0.00 0.02 0.00 73 1012.3
20260508104544 63 340 1.0 3.0 0.00 0.02 0.00 73 1012.2
20260508104044 63 340 1.0 3.0 0.00 0.02 0.00 73 1012.0
20260508103544 63 36 1.0 5.0 0.00 0.02 0.00 73 1011.7
20260508103048 63 342 1.0 4.0 0.00 0.02 0.00 73 1011.6
20260508102543 63 344 2.0 4.0 0.00 0.02 0.00 73 1011.6
20260508102043 63 338 1.0 5.0 0.00 0.02 0.00 72 1011.3
20260508101543 63 50 2.0 5.0 0.00 0.02 0.00 72 1011.4
20260508101043 63 86 2.0 9.0 0.00 0.02 0.00 72 1011.4
20260508100545 63 48 2.0 9.0 0.00 0.02 0.00 72 1011.4
20260508100059 63 65 3.0 9.0 0.00 0.02 0.00 72 1011.0
20260508095542 63 41 1.0 9.0 0.00 0.02 0.00 72 1010.7
20260508095041 63 33 2.0 10.0 0.00 0.02 0.00 71 1010.8
20260508094543 63 40 4.0 10.0 0.00 0.02 0.00 71 1010.7
20260508094039 63 23 3.0 8.0 0.00 0.02 0.00 71 1011.0
20260508093538 63 63 2.0 6.0 0.00 0.02 0.00 71 1011.7
20260508093039 63 11 2.0 8.0 0.00 0.02 0.00 71 1011.8
20260508092541 63 32 2.0 8.0 0.00 0.02 0.00 71 1011.8
20260508092037 64 61 1.0 5.0 0.00 0.02 0.00 70 1011.9
20260508091552 64 37 2.0 6.0 0.00 0.02 0.00 70 1011.8
20260508091037 64 80 2.0 6.0 0.00 0.02 0.00 70 1011.7
20260508090537 64 32 2.0 6.0 0.00 0.02 0.00 70 1011.7
20260508090042 64 24 2.0 6.0 0.00 0.02 0.00 70 1011.8
20260508085536 64 15 2.0 6.0 0.00 0.02 0.00 70 1012.1
20260508085038 64 13 1.0 4.0 0.00 0.02 0.00 70 1012.1
20260508084536 64 30 1.0 6.0 0.00 0.02 0.00 70 1012.0
20260508084039 64 326 2.0 9.0 0.00 0.02 0.00 70 1012.0
20260508083538 64 355 2.0 5.0 0.00 0.02 0.00 70 1011.8
20260508083035 64 360 2.0 5.0 0.00 0.02 0.00 69 1011.3
20260508082535 64 37 1.0 3.0 0.00 0.02 0.00 69 1011.1
20260508082035 64 37 1.0 5.0 0.00 0.02 0.00 69 1011.4
20260508081547 64 43 2.0 6.0 0.00 0.02 0.00 69 1011.5
20260508081035 64 49 2.0 6.0 0.00 0.02 0.00 69 1011.6
20260508080536 64 342 2.0 5.0 0.00 0.02 0.00 69 1011.9
20260508080034 64 351 1.0 5.0 0.00 0.02 0.00 69 1011.9
20260508075535 64 360 2.0 5.0 0.00 0.02 0.00 69 1012.0
20260508075034 64 355 1.0 6.0 0.00 0.02 0.00 69 1012.0
20260508074535 64 40 3.0 5.0 0.00 0.02 0.00 69 1011.9
20260508074032 64 32 2.0 6.0 0.00 0.02 0.00 69 1012.2
20260508073532 64 360 2.0 6.0 0.00 0.02 0.00 69 1012.5
20260508073036 64 342 1.0 5.0 0.00 0.02 0.00 69 1012.6
20260508072531 64 340 2.0 4.0 0.00 0.02 0.00 69 1012.8
20260508072031 64 46 1.0 4.0 0.00 0.02 0.00 69 1012.4
20260508071536 64 344 1.0 5.0 0.00 0.02 0.00 69 1012.6
20260508071031 64 10 2.0 6.0 0.00 0.02 0.00 69 1012.5
20260508070533 64 34 3.0 8.0 0.00 0.02 0.00 69 1012.2
20260508070031 64 5 2.0 8.0 0.00 0.02 0.00 69 1012.5
20260508065530 64 5 3.0 8.0 0.00 0.02 0.00 69 1012.6
20260508065030 64 335 2.0 4.0 0.00 0.02 0.00 69 1012.9
20260508064536 64 347 0.0 5.0 0.00 0.02 0.00 69 1012.6
20260508064030 64 347 2.0 8.0 0.00 0.02 0.00 69 1012.7
20260508063530 64 25 1.0 10.0 0.00 0.02 0.00 69 1012.4
20260508063030 64 82 4.0 9.0 0.00 0.02 0.00 69 1011.8
20260508062529 64 323 2.0 10.0 0.00 0.02 0.00 69 1012.2
20260508062029 64 319 2.0 11.0 0.00 0.02 0.00 69 1011.7
20260508061530 64 80 4.0 12.0 0.00 0.02 0.00 69 1011.2
20260508061028 64 59 5.0 12.0 0.00 0.02 0.00 69 1011.4
20260508060527 64 59 5.0 9.0 0.00 0.02 0.00 68 1011.9
20260508060028 64 48 3.0 8.0 0.00 0.02 0.00 68 1012.3
20260508055524 64 46 3.0 6.0 0.00 0.02 0.00 68 1012.5
20260508055023 64 66 2.0 4.0 0.00 0.02 0.00 68 1012.9
20260508054557 64 46 1.0 3.0 0.00 0.02 0.00 68 1013.4
20260508054024 64 326 0.0 4.0 0.00 0.02 0.00 68 1013.8
20260508053521 64 326 1.0 4.0 0.00 0.02 0.00 68 1013.7
20260508053028 64 5 1.0 4.0 0.00 0.02 0.00 68 1013.4
20260508052521 64 5 1.0 4.0 0.00 0.02 0.00 68 1013.8
20260508052020 64 331 0.0 5.0 0.00 0.02 0.00 68 1013.7
20260508051520 64 316 2.0 5.0 0.00 0.02 0.00 68 1013.6
20260508051019 64 343 1.0 8.0 0.00 0.02 0.00 68 1013.4
20260508050517 64 294 3.0 8.0 0.00 0.02 0.00 69 1014.0
20260508050017 64 288 2.0 6.0 0.00 0.02 0.00 69 1014.1
20260508045517 64 321 2.0 6.0 0.00 0.02 0.02 69 1012.9
20260508045017 63 61 3.0 8.0 0.00 0.02 0.02 69 1012.1
20260508044516 64 71 3.0 14.0 0.00 0.02 0.02 68 1011.9
20260508044017 64 55 5.0 14.0 0.00 0.02 0.02 68 1011.7
20260508043516 64 74 4.0 10.0 0.00 0.02 0.02 68 1011.6
20260508043021 64 89 6.0 10.0 0.00 0.02 0.02 68 1011.3
20260508042519 64 67 5.0 10.0 0.00 0.02 0.02 67 1011.4
20260508042015 64 28 5.0 10.0 0.00 0.02 0.02 67 1011.7
20260508041515 64 57 3.0 9.0 0.00 0.02 0.02 67 1011.9
20260508041015 65 66 4.0 9.0 0.00 0.02 0.02 66 1012.2
20260508040514 65 51 4.0 7.0 0.00 0.02 0.02 66 1012.3
20260508040014 65 338 2.0 11.0 0.00 0.02 0.02 66 1012.4
20260508035514 65 77 3.0 11.0 0.00 0.02 0.02 66 1012.3
20260508035014 65 19 4.0 10.0 0.00 0.02 0.02 66 1012.3
20260508034518 65 10 4.0 10.0 0.00 0.02 0.02 65 1012.4
20260508034016 65 35 2.0 6.0 0.00 0.02 0.02 65 1012.8
20260508033513 66 323 2.0 6.0 0.00 0.02 0.02 65 1012.9
20260508033022 66 63 3.0 9.0 0.00 0.02 0.02 65 1013.0
20260508032514 65 22 4.0 10.0 0.00 0.02 0.02 65 1013.1
20260508032012 65 17 2.0 10.0 0.00 0.02 0.02 66 1013.1
20260508031514 65 329 3.0 9.0 0.00 0.02 0.02 66 1013.3
20260508031012 65 350 3.0 8.0 0.00 0.02 0.02 66 1013.3
20260508030512 65 315 2.0 6.0 0.00 0.02 0.02 67 1013.3
20260508030011 65 29 2.0 6.0 0.00 0.02 0.02 67 1013.1
20260508025511 65 355 2.0 5.0 0.00 0.02 0.02 68 1013.2
20260508025011 65 355 1.0 4.0 0.00 0.02 0.02 67 1013.1
20260508024511 65 355 1.0 4.0 0.00 0.02 0.02 67 1012.9
20260508024011 65 355 1.0 4.0 0.00 0.02 0.02 67 1012.7
20260508023511 65 346 2.0 4.0 0.00 0.02 0.02 67 1012.7
20260508023011 65 42 1.0 3.0 0.00 0.02 0.02 67 1012.9
20260508022511 65 42 0.0 3.0 0.00 0.02 0.02 67 1012.5
20260508022011 65 42 1.0 4.0 0.00 0.02 0.02 66 1012.4
20260508021511 65 65 1.0 8.0 0.00 0.02 0.02 66 1012.2
20260508021014 65 78 2.0 10.0 0.00 0.02 0.02 66 1012.4
20260508020510 65 338 3.0 10.0 0.00 0.02 0.02 66 1012.3
20260508020010 65 340 2.0 9.0 0.00 0.02 0.02 66 1012.3
20260508015510 65 38 3.0 9.0 0.00 0.02 0.02 66 1011.9
20260508015010 65 49 3.0 10.0 0.00 0.02 0.02 66 1011.9
20260508014510 65 31 4.0 10.0 0.00 0.02 0.02 66 1011.7
20260508014010 66 5 3.0 10.0 0.00 0.02 0.02 66 1011.8
20260508013512 66 325 3.0 9.0 0.00 0.02 0.02 66 1011.6
20260508013010 66 44 5.0 9.0 0.00 0.02 0.02 65 1011.2
20260508012513 66 66 4.0 9.0 0.00 0.02 0.02 65 1011.4
20260508012009 66 73 4.0 9.0 0.00 0.02 0.02 65 1011.2
20260508011508 66 62 4.0 16.0 0.00 0.02 0.02 65 1010.8
20260508011008 66 65 5.0 16.0 0.00 0.02 0.02 64 1010.4
20260508010508 66 123 6.0 13.0 0.00 0.02 0.02 64 1010.6
20260508010019 66 42 6.0 13.0 0.00 0.02 0.02 64 1010.5
20260508005508 66 96 6.0 15.0 0.00 0.02 0.02 64 1010.3
20260508005008 67 73 6.0 15.0 0.00 0.02 0.02 63 1010.2
20260508004517 67 75 5.0 13.0 0.00 0.02 0.02 63 1010.8